Elizabeth City, NC

4:55 PM EST on February 23, 2017 (GMT -0500)
Elizabeth City Cgas-Regional

Weather History for KECG - October, 2011

Change the Weather History Date:

Thursday, October 20, 2011

  Actual Average Record
Temperature  
Mean Temperature 60 °F 61 °F  
Max Temperature 68 °F 71 °F 87 °F (1984)
Min Temperature 51 °F 51 °F 30 °F (1981)
Degree Days  
Heating Degree Days 5 5  
Month to date heating degree days 52 64  
Since 1 July heating degree days 55 76  
Cooling Degree Days 0 1  
Month to date cooling degree days 39 46  
Year to date cooling degree days 1956 1568  
Growing Degree Days 10 (Base 50)    
Moisture  
Dew Point 46 °F    
Average Humidity 61    
Maximum Humidity 77    
Minimum Humidity 44    
Precipitation  
Precipitation 0.00 in 0.08 in 2.21 in (1944)
Month to date precipitation 1.45 2.01  
Year to date precipitation 31.14 39.90  
Snow  
Snow 0.00 in - 0.00 in (2002)
Month to date snowfall 0.0  
Since 1 July snowfall 0.0  
Snow Depth 0.00 in    
Sea Level Pressure  
Sea Level Pressure 29.71 in    
Wind  
Wind Speed 14 mph (SW)    
Max Wind Speed 24 mph    
Max Gust Speed 32 mph    
Visibility 10 miles    
Events      
T = Trace of Precipitation, MM = Missing Value Source: NWS Daily Summary

Daily Weather History Graph

Daily Weather History Graph

Search for Another Location

Airport or City:

Trip Planner

Search our weather history database for the weather conditions in past years. The results will help you decide how hot, cold, wet, or windy it might be!

Date:

Astronomy

Oct. 20, 2011 Rise Set
Actual Time 7:15 AM EDT 6:22 PM EDT
Civil Twilight 6:49 AM EDT 6:48 PM EDT
Nautical Twilight 6:19 AM EDT 7:18 PM EDT
Astronomical Twilight 5:50 AM EDT 7:48 PM EDT
Moon 12:11 AM EDT (10/20) 2:18 PM EDT (10/20)
Length of Visible Light 11h 58m
Length of Day
11h 06m
Last Quarter, 44% of the Moon is Illuminated
Oct 20
Last Quarter
Oct 26
New
Nov 2
First Quarter
Nov 10
Full
Nov 18
Last Quarter

Hourly Weather History & Observations

Time (EDT) Temp. Dew Point Humidity Pressure Visibility Wind Dir Wind Speed Gust Speed Precip Events Conditions
12:54 AM 69.1 °F 61.0 °F 75% 29.43 in 10.0 mi WSW 23.0 mph 29.9 mph 0.00 in   Scattered Clouds
1:54 AM 62.1 °F 54.0 °F 75% 29.48 in 10.0 mi WSW 15.0 mph 24.2 mph N/A   Partly Cloudy
2:54 AM 57.9 °F 50.0 °F 75% 29.51 in 10.0 mi WSW 12.7 mph 24.2 mph N/A   Clear
3:54 AM 55.9 °F 48.9 °F 77% 29.55 in 10.0 mi SW 12.7 mph - N/A   Overcast
4:36 AM 55.4 °F 46.4 °F 72% 29.57 in 10.0 mi WSW 19.6 mph 27.6 mph N/A   Scattered Clouds
4:54 AM 55.0 °F 46.9 °F 74% 29.59 in 10.0 mi SW 15.0 mph 21.9 mph N/A   Scattered Clouds
6:54 AM 52.0 °F 44.1 °F 74% 29.65 in 10.0 mi SW 16.1 mph 23.0 mph N/A   Clear
7:54 AM 52.0 °F 44.1 °F 74% 29.69 in 10.0 mi SW 12.7 mph - N/A   Clear
8:54 AM 54.0 °F 45.0 °F 72% 29.72 in 10.0 mi SW 17.3 mph 26.5 mph N/A   Clear
9:54 AM 55.9 °F 45.0 °F 67% 29.73 in 10.0 mi SW 16.1 mph 23.0 mph N/A   Clear
10:54 AM 59.0 °F 45.0 °F 60% 29.73 in 10.0 mi SW 18.4 mph 26.5 mph N/A   Clear
11:54 AM 61.0 °F 45.0 °F 56% 29.74 in 10.0 mi SW 18.4 mph 26.5 mph N/A   Clear
12:54 PM 63.0 °F 44.1 °F 50% 29.73 in 10.0 mi SW 21.9 mph 28.8 mph N/A   Clear
1:54 PM 64.0 °F 43.0 °F 46% 29.72 in 10.0 mi SW 20.7 mph 28.8 mph N/A   Clear
2:54 PM 64.0 °F 44.1 °F 48% 29.72 in 10.0 mi SW 18.4 mph 25.3 mph N/A   Clear
3:54 PM 64.9 °F 42.1 °F 43% 29.73 in 10.0 mi WSW 20.7 mph 27.6 mph N/A   Clear
4:54 PM 64.0 °F 43.0 °F 46% 29.75 in 10.0 mi WSW 17.3 mph 23.0 mph N/A   Clear
5:54 PM 61.0 °F 43.0 °F 52% 29.78 in 10.0 mi WSW 13.8 mph 26.5 mph N/A   Clear
6:54 PM 57.9 °F 43.0 °F 58% 29.83 in 10.0 mi WSW 10.4 mph - N/A   Clear
7:54 PM 54.0 °F 44.1 °F 69% 29.86 in 10.0 mi WSW 8.1 mph - N/A   Clear
8:54 PM 53.6 °F 44.6 °F 72% 29.88 in 10.0 mi SW 8.1 mph - N/A   Clear
9:54 PM 52.0 °F 44.1 °F 74% 29.91 in 10.0 mi SW 8.1 mph - N/A   Clear
10:54 PM 53.1 °F 44.1 °F 71% 29.93 in 10.0 mi SW 8.1 mph - N/A   Clear